Regional Weather Roundup
Issued by NWS

Home | Current Version | Previous Version | Text Only | Print | Product List | Glossary On
Versions: 1 2 3 4 5 6 7 8 9 10 11 12 13 14 15 16 17 18 19 20 21 22 23 24 25 26 27 28 29 30 31 32 33 34 35 36 37 38 39 40 41 42 43 44 45 46 47 48 49 50
000
ASUS43 KIND 260009
RWRIN

WEATHER ROUNDUP FOR INDIANA
NATIONAL WEATHER SERVICE INDIANAPOLIS IN
800 PM EDT SUN SEP 25 2016

NOTE: "FAIR" INDICATES FEW OR NO CLOUDS BELOW 12,000 FEET WITH NO
SIGNIFICANT WEATHER AND/OR OBSTRUCTIONS TO VISIBILITY.

* - STATION DOES NOT REPORT WEATHER SUCH AS PRECIPITATION OR FOG.

+ - STATION NOT QUALITY CONTROLLED BY THE NATIONAL WEATHER SERVICE.
    USE DATA WITH CAUTION...ESPECIALLY DEWPOINT AND RELATIVE
    HUMIDITY OBSERVATIONS.

INZ001>003-010>013-019-020-260100-
NORTHWEST INDIANA

CITY           SKY/WX    TMP DP  RH WIND       PRES   REMARKS
GARY /AIRPORT/ PTCLDY    79  70  73 SE6       29.92R
KNOX *+        PTCLDY    72  52  49 CALM      29.95F
LA PORTE +     CLOUDY    74  74 100 SE3       29.95S
6HR MIN TEMP:  74; 6HR MAX TEMP:  87; 6HR PCP:  0.05;

MICHIGAN CITY+ MOCLDY    72  68  88 MISG      29.94R
MONTICELLO +   MOCLDY    79  59  50 SW8       29.96R
6HR MIN TEMP:  79; 6HR MAX TEMP:  86;

RENSSELAER +   PTCLDY    70  70 100 CALM      29.96R FOG
VALPARAISO     LGT RAIN  74  69  85 SE8       29.95R
6HR MIN TEMP:  73; 6HR MAX TEMP:  86; 6HR PCP: TRACE;


$$

LMZ046-743>745-260100-
SOUTHERN LAKE MICHIGAN

STATION/POSITION TIME  TEMP    WIND        PRES    WAVE
                       AIR SEA DIR/SP/G            HT
                 (UTC) (F)     (DEG/KT/KT) (MB)    (FT)
BURNS HARBOR     2302   79     170/  9/ 16 1013.2F
MICHIGAN CITY    2300   76     130/ 11/ 12   N/A
5NW MICH CITY    0000   73 70  160/ 10/ 12   N/A     1

$$

INZ004-005-014>016-021>024-260100-
NORTH CENTRAL INDIANA

CITY           SKY/WX    TMP DP  RH WIND       PRES   REMARKS
GOSHEN         CLOUDY    77  62  59 SE9       29.97S
6HR MIN TEMP:  77; 6HR MAX TEMP:  83;

LOGANSPORT +   CLOUDY    79  64  61 S7        29.97S
PERU/GRISSOM   CLOUDY    79  65  63 S7        29.96S
6HR MIN TEMP:  79; 6HR MAX TEMP:  87;

ROCHESTER +    PTCLDY    81  68  65 SE6       29.97R
SOUTH BEND     CLOUDY    76  67  73 SE6       29.96R
6HR MIN TEMP:  76; 6HR MAX TEMP:  83; 6HR PCP:  0.01;

WARSAW +       CLEAR     75  59  57 SE5       29.97S

$$

INZ006>009-017-018-025>027-260100-
NORTHEAST INDIANA

CITY           SKY/WX    TMP DP  RH WIND       PRES   REMARKS
ANGOLA *+        N/A     72  64  78 SE7       30.01S
AUBURN +       CLOUDY    72  59  64 E5        30.01S
FORT WAYNE     PTCLDY    75  63  66 SE8       30.00S
6HR MIN TEMP:  75; 6HR MAX TEMP:  83;

HUNTINGTON +   CLEAR     75  64  69 SE3       30.00R
KENDALLVILLE + PTCLDY    71  59  65 SE5       30.01S

$$

INZ028-029-035-036-043>045-051>053-260100-
WEST CENTRAL INDIANA

CITY           SKY/WX    TMP DP  RH WIND       PRES   REMARKS
CRAWFORDSVL +  TSTM      69  69 100 CALM      30.01S
6HR MIN TEMP:  69; 6HR MAX TEMP:  86; 6HR PCP:  0.02;

GREENCASTLE +  CLEAR     73  72  94 CALM      30.00S
LAFAYETTE      CLOUDY    72  68  87 VRB5      29.97R
6HR MIN TEMP:  71; 6HR MAX TEMP:  88; 6HR PCP: TRACE;

TERRE HAUTE    MOCLDY    80  68  66 S3        29.98S
6HR MIN TEMP:  80; 6HR MAX TEMP:  88;


$$

INZ030>032-037>040-046>048-054>057-064-065-260100-
CENTRAL INDIANA

CITY           SKY/WX    TMP DP  RH WIND       PRES   REMARKS
COLUMBUS       CLEAR     77  68  73 CALM      30.01R
GREENWOOD *+   CLEAR    N/A N/A N/A CALM      30.01S
INDIANAPOLIS   PTCLDY    79  67  66 S8        29.99S
6HR MIN TEMP:  79; 6HR MAX TEMP:  86;

-EAGLE CREEK   CLEAR     80  67  64 S3        29.99S
6HR MIN TEMP:  80; 6HR MAX TEMP:  86;

MARION +         N/A     76  62  62 S5        30.00S HAZE
MT COMFORT *+  CLEAR     77  64  65 S3        30.01F
SHELBYVILLE    CLEAR     77  65  66 SW5       30.00S
6HR MIN TEMP:  77; 6HR MAX TEMP:  88;

ZIONSVILLE +   PTCLDY    75  66  75 S6        30.01S
6HR MIN TEMP:  73; 6HR MAX TEMP:  84;


$$

INZ033-034-041-042-049-050-058-059-260100-
EAST CENTRAL INDIANA

CITY           SKY/WX    TMP DP  RH WIND       PRES   REMARKS
MUNCIE         CLEAR     80  63  55 S7        30.01R
6HR MIN TEMP:  80; 6HR MAX TEMP:  87;


$$

INZ060-061-067>069-081>083-085>088-260100-
SOUTHWEST INDIANA

CITY           SKY/WX    TMP DP  RH WIND       PRES   REMARKS
EVANSVILLE     CLEAR     82  67  60 CALM      29.99S
6HR MIN TEMP:  82; 6HR MAX TEMP:  93;

HUNTINGBURG *+   N/A     81  64  57 CALM      30.00S
6HR MIN TEMP:  81; 6HR MAX TEMP:  90;

WASHINGTON +   CLEAR     75  71  86 MISG      29.98S

$$

INZ062-063-066-070>080-084-089>092-260100-
SOUTH CENTRAL AND SOUTHEAST INDIANA

CITY           SKY/WX    TMP DP  RH WIND       PRES   REMARKS
BLOOMINGTON    CLEAR     74  69  85 CALM      30.01R
6HR MIN TEMP:  74; 6HR MAX TEMP:  88;

MADISON *+     CLEAR     73  68  83 CALM      30.03S
SEYMOUR +      CLEAR     77  66  69 CALM      30.00S

$$




USA.gov is the U.S. government's official web portal to all federal, state and local government web resources and services.